Location: Saint-Denis
(20.8800°S, 55.4481°E)
Time: 08:11:16
(UTC+04:00)

FENGYUN 1C DEB - Pass Details

Date: 29 February 2024
Orbit: 798 x 864 km, 98.6° (Epoch: 24 April)

Event Time Altitude Azimuth Distance (km) Brightness Sun altitude
Rises 20:23:05 0° 185° (S) 3,424 ? -22.9°
Reaches altitude 10° 20:25:48 10° 196° (SSW) 2,472 ? -23.5°
Maximum altitude 20:30:19 27° 252° (WSW) 1,551 ? -24.5°
Drops below altitude 10° 20:34:46 10° 308° (NW) 2,414 ? -25.5°
Sets 20:37:24 0° 320° (NW) 3,328 ? -26.1°
